RH
31 27 28 26 22 22 21 20 21 22 24 24 23 24 24 24 23 24 25 26 27 30 34 39 50 65 75 78 79 78 75 70 61 56 52 48 48 47 45 44 46 53 56 55 54 54 58 61 61 62 62 60 58 56 54 56 55 55 60 65 68 74 72 69 70 64 59 62 59 57 56 53 52 51 51 51 49 49 48 43 38 37 34 30 28 25 22 20
38 31 31 35 27 23 25 22 20 21 22 23 23 23 24 25 24 24 25 26 27 29 31 35 42 49 61 72 77 78 76 75 70 61 50 46 49 48 46 44 42 47 50 50 50 49 56 62 60 60 62 61 59 57 55 55 54 55 59 62 67 72 68 65 71 66 59 60 56 53 56 54 53 52 52 52 50 49 51 51 44 40 39 35 33 30 25 22
42 35 32 41 36 26 28 25 21 21 21 22 23 23 24 26 26 25 27 28 27 28 30 33 38 40 47 61 73 80 76 76 77 65 53 49 49 48 46 45 42 42 43 44 45 45 52 61 60 58 60 62 62 59 57 56 55 56 55 58 65 69 66 60 63 62 56 56 52 50 54 54 54 53 53 53 52 50 51 54 50 46 44 41 40 37 31 27
42 37 32 41 40 29 31 32 26 23 21 20 23 25 25 26 27 28 30 31 30 28 29 31 36 38 39 51 69 81 81 80 78 64 57 55 52 50 47 45 43 42 41 40 41 41 44 54 57 56 57 61 62 60 57 56 56 57 54 57 62 63 63 58 55 56 54 53 49 47 51 53 53 53 53 53 53 53 50 51 50 48 47 46 47 46 41 36
40 37 34 40 40 33 34 38 32 25 24 21 22 26 26 26 27 31 34 33 33 30 29 30 34 36 36 46 59 75 86 84 75 65 62 61 57 54 50 47 44 42 42 41 40 39 39 46 52 54 56 60 61 59 56 54 56 56 54 55 58 58 60 57 53 53 52 51 49 48 51 52 52 53 53 53 55 54 50 49 48 48 48 48 49 50 48 46
38 36 37 41 41 37 37 40 37 29 27 23 22 24 26 29 26 31 38 35 34 35 33 33 35 35 35 46 54 65 82 82 71 66 65 64 64 61 55 51 47 44 43 42 42 40 38 41 49 52 52 57 59 57 54 54 55 56 54 52 55 56 57 57 54 54 53 51 50 49 50 52 53 54 53 54 55 53 49 49 49 49 49 48 48 50 51 50
41 39 43 46 43 39 36 39 39 32 30 28 24 24 27 33 29 28 39 39 36 37 36 36 39 37 37 47 54 61 72 74 70 68 69 70 69 68 64 58 53 50 47 44 43 41 40 40 45 49 49 52 55 53 52 52 54 54 53 52 53 55 54 54 54 53 53 51 50 49 49 51 53 54 55 55 55 53 51 50 50 49 50 50 50 49 49 49
47 44 45 47 44 39 38 40 38 33 35 33 27 25 26 34 33 26 35 41 38 39 37 37 40 41 43 48 55 63 63 61 65 68 71 74 73 75 74 68 60 57 53 47 44 42 41 40 42 46 47 47 47 49 50 51 55 54 52 51 52 53 52 52 53 52 52 51 50 50 49 50 51 53 55 56 55 53 53 52 51 49 49 51 52 50 49 49
53 48 46 49 46 41 42 43 39 35 39 39 30 27 27 31 33 27 30 38 43 45 37 35 42 45 45 44 51 59 48 41 53 65 74 77 77 80 79 76 70 64 60 53 48 45 42 40 41 43 45 44 43 45 48 51 55 52 49 50 51 52 51 51 52 51 51 51 50 50 50 49 51 54 55 56 55 53 53 53 52 50 48 50 52 51 51 49
55 50 48 53 51 47 47 43 41 39 42 43 33 28 30 32 32 29 30 34 43 51 40 33 46 52 46 42 49 49 33 32 44 55 69 77 79 83 81 82 80 74 69 61 53 49 44 40 40 43 44 43 43 44 46 50 54 51 49 50 52 53 51 51 51 50 51 50 49 50 51 50 51 52 54 57 56 53 53 54 54 52 49 50 51 51 51 50
52 50 50 53 53 51 49 44 43 44 45 45 36 29 31 37 35 30 32 34 40 51 46 36 48 61 55 46 45 39 27 30 40 45 57 66 74 83 83 85 86 81 78 74 64 55 50 45 42 44 46 45 44 44 45 47 49 50 50 51 53 54 53 52 50 49 50 49 48 49 51 51 50 48 50 56 58 56 54 54 55 55 54 52 50 50 50 51
50 51 52 55 55 52 49 48 48 47 49 48 38 30 32 39 38 32 34 36 37 46 47 39 46 63 67 57 41 30 24 26 34 44 52 55 62 73 82 88 87 85 83 78 72 65 59 54 48 47 48 47 46 44 44 45 47 49 51 54 55 54 54 53 50 49 49 49 48 48 51 52 48 44 47 55 58 57 56 54 53 55 56 55 53 51 50 52
51 52 53 57 58 54 49 50 51 48 52 54 41 31 32 37 40 36 34 36 37 42 44 41 43 58 74 70 47 32 29 27 30 41 51 53 55 62 77 87 88 89 86 78 72 71 70 65 58 53 51 51 49 47 46 45 46 48 51 55 57 57 57 54 51 50 50 50 48 49 55 53 46 42 45 52 55 54 54 53 53 53 55 56 55 54 53 53
57 57 55 56 57 56 50 48 51 49 52 57 48 35 32 35 40 36 33 35 37 41 44 41 41 55 69 69 58 43 35 34 33 38 49 52 51 60 74 81 85 90 87 82 77 75 78 76 69 63 59 57 53 49 50 50 49 49 51 55 58 61 60 53 50 51 50 50 47 50 57 52 44 42 42 46 49 49 49 49 50 52 52 52 53 54 55 54
65 63 58 56 55 57 54 49 51 50 50 56 55 43 33 36 41 35 33 38 41 42 44 43 41 50 58 60 62 51 41 42 38 37 46 48 45 53 68 73 78 87 88 87 86 84 85 84 80 75 68 61 57 55 55 56 55 52 51 54 56 59 59 52 49 50 49 49 48 51 58 52 41 40 40 42 45 45 45 45 46 48 49 50 50 51 53 54
69 66 61 57 56 59 59 54 52 49 48 55 61 55 41 39 42 38 38 44 48 48 51 49 42 47 53 52 57 55 47 42 38 40 42 41 38 42 57 69 72 79 85 89 91 91 91 90 88 84 76 68 63 60 59 60 59 54 52 53 52 54 57 53 50 49 47 49 49 50 57 52 42 37 37 40 42 43 43 42 43 44 45 46 47 47 49 51
71 69 64 61 61 61 62 61 58 52 52 57 64 63 53 44 42 44 45 47 50 52 60 57 44 51 59 51 51 56 50 38 36 44 40 35 37 36 45 59 65 69 78 90 95 95 95 94 94 90 83 78 72 67 68 68 61 55 54 55 53 54 57 55 50 48 48 50 50 49 52 50 41 35 35 37 40 42 42 41 40 40 41 42 44 44 44 47
73 73 70 67 66 65 67 71 69 64 61 60 62 62 57 45 44 53 53 49 49 53 66 66 55 63 69 57 49 50 48 41 38 41 41 39 39 38 38 44 50 55 64 80 89 93 96 95 96 97 93 88 83 77 73 67 58 55 56 54 53 53 54 55 52 48 49 52 52 50 51 48 40 35 36 36 37 41 40 38 37 37 37 38 39 40 42 43
74 77 76 75 74 72 73 77 77 76 74 70 65 62 58 48 47 57 56 52 54 58 67 67 59 60 57 48 48 48 46 45 42 41 42 43 41 41 44 44 45 47 51 64 75 82 91 96 95 97 98 92 86 79 70 62 58 54 52 51 51 52 53 54 51 47 48 52 52 51 50 48 41 36 37 36 36 38 38 37 37 35 35 35 35 36 37 39
75 77 80 80 81 79 78 83 83 80 82 83 75 70 69 58 52 58 58 53 51 51 58 56 48 47 44 40 46 51 49 48 47 47 46 45 45 46 49 54 57 55 49 51 63 69 79 96 98 92 90 86 80 76 72 69 66 60 57 54 51 52 51 49 49 45 45 51 51 48 48 48 43 35 34 36 37 38 38 37 36 35 33 32 31 31 32 33
79 77 82 81 81 84 84 88 89 85 88 91 81 76 74 62 53 54 56 55 50 49 55 54 47 48 48 47 48 49 56 60 55 54 55 52 52 53 54 57 65 69 58 49 55 63 72 88 96 90 84 84 83 79 78 77 73 70 67 62 56 54 50 46 47 43 43 49 48 46 48 48 46 37 31 34 38 38 36 37 36 34 32 30 29 28 28 28
82 77 83 84 82 86 87 88 89 87 91 95 89 80 73 64 56 52 53 55 52 54 60 60 57 55 53 53 53 50 57 66 63 60 61 60 61 59 55 57 65 70 67 63 64 72 81 79 77 80 82 87 90 86 84 81 81 81 76 71 67 60 55 51 48 44 45 49 49 48 50 47 44 39 31 30 35 35 33 34 35 33 31 29 28 26 25 25
83 78 80 83 85 87 87 87 88 87 89 92 90 82 73 66 60 58 60 57 52 56 63 63 59 55 56 57 55 55 58 62 64 64 60 61 64 59 53 56 62 63 67 73 70 73 82 68 55 66 79 87 91 90 88 85 86 87 81 78 73 66 65 60 53 49 46 46 47 47 49 45 43 42 34 28 30 32 31 32 33 32 30 28 26 26 24 23
82 79 78 80 84 86 87 87 87 87 88 88 87 86 81 72 63 62 65 64 59 55 53 56 55 48 50 54 52 56 62 60 65 70 67 65 64 60 56 53 57 63 65 67 65 64 64 52 49 64 73 79 86 89 92 92 88 85 83 82 75 72 72 67 62 58 51 48 45 46 53 50 44 46 40 30 29 30 30 30 32 31 27 26 26 25 24 22
82 81 78 79 83 84 85 86 86 85 84 83 83 85 86 79 71 70 70 69 67 60 51 51 55 48 41 48 54 54 57 59 63 71 72 67 62 60 59 54 55 61 61 62 65 64 55 45 54 69 73 76 83 88 91 94 91 87 84 78 74 76 75 72 71 66 63 61 50 51 62 54 42 45 41 32 30 29 29 31 31 29 26 25 25 24 22 21
78 80 79 80 84 85 83 81 82 81 79 77 76 80 84 79 76 77 76 75 71 61 58 54 51 46 37 43 54 56 59 54 49 60 71 67 61 59 60 59 59 55 52 57 63 63 54 46 49 62 72 76 79 86 86 88 96 94 82 76 77 81 78 74 73 73 73 69 58 58 64 57 48 47 41 35 32 28 28 31 30 29 27 24 23 21 20 20
74 76 79 79 81 84 81 78 78 77 74 73 72 75 77 75 77 77 78 89 81 59 58 59 48 42 37 38 45 57 67 54 42 52 64 66 66 65 64 63 62 54 46 54 65 60 52 50 51 57 70 75 75 78 74 80 95 87 75 80 84 81 78 75 78 82 76 69 68 65 65 64 57 50 43 40 39 32 30 32 31 29 28 24 22 20 19 19
70 72 76 78 78 79 79 78 75 73 73 76 76 77 76 75 78 77 84 96 80 55 56 56 45 39 40 41 42 49 58 54 51 51 49 61 75 77 74 66 61 55 47 55 62 52 47 53 53 56 69 76 72 67 64 75 85 76 74 84 82 77 77 77 83 86 79 79 82 73 71 72 58 47 45 43 43 38 31 29 30 29 28 24 22 20 19 19
68 67 70 74 75 76 76 75 73 74 75 76 78 80 79 79 78 83 96 94 71 58 58 50 44 45 47 49 45 42 45 53 60 52 44 60 76 81 82 70 61 60 56 58 54 45 50 55 51 54 63 68 67 65 66 72 71 68 77 81 75 77 80 80 86 88 85 91 88 73 73 75 58 45 46 45 43 39 31 28 28 27 27 24 22 20 19 20
64 64 65 69 71 72 74 73 72 74 73 72 75 76 77 83 85 94 104 87 65 68 70 58 52 50 48 51 50 43 40 48 58 56 51 59 68 75 80 74 71 73 70 70 62 48 48 53 53 56 56 53 55 62 68 69 67 69 76 76 76 83 82 81 86 88 93 98 86 67 64 70 61 44 42 44 40 36 32 29 29 27 27 26 24 23 23 22
56 59 61 63 66 69 72 74 73 71 68 68 71 73 77 85 90 100 98 72 58 70 76 75 69 56 49 49 49 46 43 44 52 58 60 62 66 72 76 79 83 84 85 85 76 59 52 56 61 62 57 50 51 60 65 68 73 76 75 73 81 88 86 87 92 93 100 98 79 60 58 70 67 45 40 42 37 36 35 33 32 30 28 27 26 25 25 25
50 54 56 58 63 67 69 74 74 68 67 69 72 77 82 91 96 97 87 65 62 72 75 79 75 63 56 49 45 46 47 46 46 50 56 63 71 72 72 76 78 82 89 89 81 70 59 54 56 60 61 59 60 65 67 68 73 78 80 81 88 94 92 96 96 95 98 88 67 58 64 76 67 45 42 44 40 39 37 34 34 31 29 28 27 26 26 27
47 48 53 55 59 64 66 70 71 68 67 71 80 85 87 96 96 85 75 64 63 68 71 75 72 66 64 60 52 47 47 49 44 42 48 56 68 74 71 69 70 74 81 82 81 81 70 59 59 65 66 65 66 70 71 70 71 76 82 86 91 93 95 96 90 89 92 81 64 63 73 80 66 46 41 41 40 40 37 35 35 32 31 30 28 28 28 28
49 46 50 51 56 62 64 66 67 66 69 76 85 89 93 98 88 71 67 65 60 64 72 76 72 72 73 67 59 54 53 55 48 43 46 51 62 73 74 72 71 73 79 84 85 84 79 72 69 68 62 59 60 60 58 59 66 70 68 75 84 84 84 85 79 79 81 73 68 73 80 81 64 45 39 39 38 37 36 36 35 33 33 31 30 30 29 28
54 48 50 51 54 60 62 63 64 64 70 78 85 91 94 88 77 69 66 60 59 64 71 75 75 79 81 71 63 61 60 58 55 52 52 54 57 61 66 72 73 71 77 88 89 84 81 73 62 58 54 51 52 49 47 57 72 72 65 74 83 74 68 72 68 65 66 71 77 77 76 71 55 42 42 44 40 38 38 36 35 34 33 32 31 30 29 27
65 56 55 53 52 57 61 62 62 62 66 74 84 91 88 73 63 65 59 52 56 61 65 74 80 85 86 78 71 68 64 62 61 61 59 57 55 52 56 67 74 75 76 83 87 86 84 73 59 59 60 54 50 47 50 61 68 67 69 73 69 59 60 69 69 64 68 77 77 70 67 62 52 45 42 42 42 41 39 38 37 36 34 34 33 31 30 28
75 63 58 58 55 55 60 62 62 61 63 71 79 80 77 70 62 60 57 54 56 56 59 70 81 88 89 84 77 71 70 69 67 67 66 64 62 54 52 59 68 75 77 78 81 82 84 76 63 66 68 58 52 53 58 62 60 66 73 64 56 63 71 73 74 73 79 83 71 63 62 57 54 49 38 38 42 40 38 39 39 37 36 36 34 32 31 29
75 68 61 61 61 58 60 64 64 61 64 71 73 68 66 69 65 59 59 60 58 57 60 65 73 84 89 86 80 74 75 75 71 70 69 69 69 57 50 52 57 64 70 77 84 83 85 85 74 70 69 62 61 67 73 72 71 80 82 66 64 77 79 79 82 79 80 82 71 61 60 58 56 47 36 36 38 36 38 41 39 38 38 37 35 33 32 30
72 72 64 56 59 61 60 64 66 67 70 70 67 62 58 58 57 57 60 64 65 66 67 62 61 72 83 85 80 78 82 78 71 72 71 68 66 56 47 49 51 53 59 72 84 84 84 88 81 74 71 70 74 79 80 79 81 89 90 83 82 81 75 76 79 72 70 76 73 66 64 62 54 40 35 35 32 31 36 37 38 39 38 37 35 34 32 31
76 75 70 55 55 61 61 66 74 75 72 63 56 54 51 49 50 53 58 64 68 70 67 63 61 64 72 79 81 82 87 84 75 75 74 68 63 56 48 47 50 50 52 61 73 81 86 91 87 82 83 86 86 81 73 71 78 86 87 86 85 82 80 82 80 73 70 74 75 74 69 59 46 35 33 33 30 32 35 35 37 39 38 37 36 36 34 31
85 81 77 62 56 61 65 71 75 72 65 56 51 49 48 48 49 52 59 66 72 72 68 69 71 66 63 71 79 81 85 90 87 83 79 72 67 60 50 44 45 48 53 62 70 76 86 94 91 88 92 94 86 73 65 65 69 73 75 74 72 74 79 85 85 80 76 75 72 71 66 53 39 33 30 28 30 33 35 36 38 39 39 38 37 38 36 32
92 86 82 68 58 62 68 71 68 65 60 52 48 48 46 46 47 51 56 63 72 76 75 75 74 69 64 66 75 81 82 85 89 89 85 77 69 59 48 41 41 43 50 59 60 58 69 87 94 91 90 88 81 76 76 77 73 70 70 69 70 77 84 89 87 80 79 79 71 68 68 53 37 32 29 27 29 31 33 35 37 39 40 41 40 38 37 36
90 90 88 75 62 60 65 68 65 61 55 47 44 45 45 46 47 49 51 55 63 70 74 75 71 65 61 62 71 81 83 82 84 88 87 82 73 61 53 49 47 47 51 57 58 57 69 88 97 93 89 86 84 83 82 82 82 79 76 73 74 81 84 84 80 75 79 82 75 77 81 61 40 36 35 32 32 34 35 36 39 40 40 41 40 38 37 37
87 92 94 83 69 61 60 59 58 56 50 47 47 47 46 47 47 48 49 50 55 61 66 69 68 64 60 61 69 77 80 81 84 86 84 82 77 68 65 63 58 56 57 56 56 60 70 85 93 93 94 92 92 92 90 89 91 86 79 75 76 77 78 81 80 78 83 82 76 83 85 63 42 40 40 40 41 41 41 40 42 44 42 42 42 40 39 39
80 86 93 87 74 64 58 52 51 54 53 51 50 49 48 47 44 45 47 47 51 58 63 64 65 66 66 68 71 77 79 77 80 85 84 82 77 70 70 73 68 63 58 52 50 53 60 70 80 87 92 92 90 86 81 80 84 85 81 78 78 76 77 79 79 82 87 84 78 83 80 61 46 42 41 41 44 45 45 44 44 46 47 46 46 45 43 43
72 74 85 90 83 70 60 54 52 53 53 53 52 49 48 47 42 42 46 47 47 52 57 61 65 71 75 75 73 77 80 77 78 82 83 80 76 68 69 77 78 72 66 61 58 60 64 67 68 71 75 75 71 67 65 68 77 85 85 82 80 78 74 76 82 85 83 81 81 81 78 68 55 45 40 41 44 46 47 47 46 47 48 48 48 47 46 46
75 69 69 80 86 78 67 60 57 53 50 51 50 46 45 45 44 46 47 44 43 47 53 60 67 74 76 74 72 72 75 77 78 77 75 74 72 67 70 80 84 79 74 72 67 65 71 73 66 62 63 60 58 61 68 76 81 82 81 82 83 82 80 84 89 83 76 82 85 76 73 73 59 42 38 41 45 46 47 48 49 50 50 49 49 50 50 49
83 78 65 62 74 79 71 62 59 59 56 51 47 45 45 46 45 47 46 45 47 51 56 61 63 65 65 67 70 70 70 75 78 74 71 70 68 68 71 79 85 84 82 83 81 75 75 73 64 62 62 56 53 56 62 72 79 77 78 80 81 82 85 88 87 78 74 84 82 67 65 68 55 41 39 41 44 46 47 49 49 50 50 50 51 51 51 48
86 90 81 67 67 73 71 65 63 64 61 57 53 48 46 45 43 41 43 51 55 51 53 57 55 54 57 63 69 70 68 71 72 67 66 66 66 67 70 72 77 85 90 92 88 83 81 72 59 60 64 58 54 53 53 62 74 79 80 82 81 82 83 83 82 77 76 80 75 67 68 66 54 44 38 37 41 45 48 51 51 49 48 49 51 51 49 48
84 91 93 86 78 73 71 74 77 74 67 64 59 50 45 44 42 39 42 50 52 49 51 51 46 48 56 63 70 69 61 59 59 57 61 65 65 67 68 66 69 79 88 92 91 90 90 79 61 58 67 64 58 57 57 61 71 76 78 81 83 86 88 86 83 78 80 83 77 72 75 71 59 49 41 39 40 43 48 51 49 47 47 48 51 50 48 47
83 87 91 92 91 85 77 76 83 85 78 72 64 56 56 51 44 46 48 45 45 48 50 48 48 55 64 72 76 66 55 55 53 49 56 62 64 68 69 70 75 81 86 91 93 94 96 92 77 72 78 71 59 60 61 63 71 77 77 78 81 86 89 89 85 78 78 81 80 81 83 74 60 51 47 46 45 45 50 54 53 51 49 48 51 51 48 47
84 85 87 89 92 94 91 85 87 88 82 77 75 74 73 65 59 65 67 58 53 51 53 57 63 69 75 78 74 59 52 57 54 52 61 67 67 71 73 73 77 82 84 88 91 91 95 99 94 92 94 81 64 61 63 66 77 84 77 72 75 78 79 81 81 78 76 79 84 86 80 65 56 55 55 53 50 50 52 55 56 55 52 51 52 51 49 49